FW9406 Weather Reports


time (UTC)temp
C
wind
direction
speed
KPH
gust
KPH
rain 1hr
cm
rain 24hr
cm
rain mn
cm
humidity
%
barometer
mb
20260507160132 22 209 6.4 12.9 0.00 3.71 3.71 95 1013.5
20260507155627 22 231 9.7 14.5 0.00 3.71 3.71 95 1013.2
20260507155124 22 276 3.2 9.7 0.00 3.71 3.71 95 1013.5
20260507154621 22 265 4.8 17.7 0.00 3.71 3.71 95 1013.5
20260507154119 22 209 8.0 12.9 0.00 3.71 3.71 96 1013.5
20260507153615 22 251 3.2 4.8 0.00 3.71 3.71 97 1013.9
20260507153112 22 273 6.4 11.3 0.00 3.71 3.71 97 1013.9
20260507152608 22 297 3.2 11.3 0.00 3.71 3.71 97 1013.5
20260507152104 22 231 6.4 9.7 0.00 3.71 3.71 97 1013.5
20260507151600 22 91 6.4 11.3 0.00 3.71 3.71 97 1013.5
20260507151057 22 272 8.0 11.3 0.00 3.71 3.71 96 1013.5
20260507150554 22 229 3.2 12.9 0.00 3.71 3.71 96 1013.5
20260507150051 22 236 9.7 12.9 0.00 3.71 3.71 96 1013.5
20260507145545 22 258 9.7 14.5 0.00 3.71 3.71 96 1013.5
20260507145044 22 280 8.0 12.9 0.00 3.71 3.71 96 1013.5
20260507144540 22 237 6.4 6.4 0.00 3.71 3.71 96 1013.2
20260507144038 22 215 6.4 12.9 0.00 3.71 3.71 96 1013.2
20260507143535 22 269 1.6 14.5 0.00 3.71 3.71 97 1013.2
20260507143032 22 131 1.6 9.7 0.00 3.71 3.71 97 1012.8
20260507142527 22 259 6.4 12.9 0.00 3.71 3.71 97 1012.8
20260507142025 22 240 6.4 20.9 0.00 3.71 3.71 97 1013.2
20260507141520 21 227 4.8 12.9 0.00 3.71 3.71 98 1012.8
20260507141017 21 285 12.9 17.7 0.00 3.71 3.71 99 1012.8
20260507140514 21 288 8.0 11.3 0.00 3.71 3.71 99 1013.2
20260507140012 21 253 11.3 16.1 0.00 3.71 3.71 99 1012.8
20260507135508 21 263 6.4 12.9 0.00 3.71 3.71 99 1012.8
20260507135006 21 89 1.6 20.9 0.00 3.71 3.71 99 1012.8
20260507134502 20 198 6.4 11.3 0.00 3.71 3.71 99 1012.5
20260507133958 20 286 1.6 11.3 0.00 3.71 3.71 99 1012.5
20260507133454 20 172 0.0 9.7 0.00 3.71 3.71 99 1012.8
20260507132953 20 245 3.2 11.3 0.00 3.71 3.71 99 1012.8
20260507132448 20 206 1.6 9.7 0.00 3.71 3.71 99 1013.2
20260507131945 20 125 4.8 14.5 0.00 3.71 3.71 99 1012.8
20260507131442 20 134 3.2 6.4 0.00 3.71 3.71 99 1013.2
20260507130939 20 247 9.7 16.1 0.00 3.71 3.71 99 1012.8
20260507130436 20 249 4.8 6.4 0.00 3.71 3.71 99 1012.8
20260507125935 20 136 3.2 6.4 0.00 3.71 3.71 99 1012.8
20260507125433 20 133 8.0 12.9 0.00 3.71 3.71 99 1012.5
20260507124930 20 334 1.6 3.2 0.00 3.71 3.71 99 1012.5
20260507124426 20 247 4.8 9.7 0.00 3.71 3.71 99 1012.8
20260507123924 20 195 1.6 4.8 0.00 3.71 3.71 99 1012.8
20260507123421 20 141 4.8 6.4 0.00 3.71 3.71 99 1012.8
20260507122918 20 249 1.6 6.4 0.00 3.71 3.71 99 1012.8
20260507122413 20 194 3.2 4.8 0.00 3.71 3.71 99 1013.2
20260507121909 20 164 3.2 6.4 0.00 3.71 3.71 99 1012.8
20260507121404 19 220 0.0 1.6 0.00 3.71 3.71 99 1013.2
20260507120901 20 203 0.0 0.0 0.00 3.71 3.71 99 1013.2
20260507120358 20 220 1.6 3.2 0.00 3.71 3.71 99 1013.2
20260507115854 19 198 0.0 0.0 0.00 3.71 3.71 99 1013.5
20260507115350 19 238 0.0 0.0 0.00 3.71 3.71 99 1013.9
20260507114846 19 216 0.0 0.0 0.00 3.71 3.71 99 1013.9
20260507114343 19 219 0.0 0.0 0.00 3.71 3.71 99 1013.9
20260507113840 19 173 1.6 9.7 0.00 3.71 3.71 99 1013.5
20260507113337 19 209 0.0 1.6 0.00 3.71 3.71 99 1013.5
20260507112835 19 190 1.6 3.2 0.00 3.71 3.71 99 1013.5
20260507112332 19 139 1.6 3.2 0.00 3.71 3.71 99 1013.2
20260507111830 19 175 1.6 4.8 0.00 3.71 3.71 99 1013.5
20260507111326 19 184 1.6 1.6 0.00 3.71 3.71 99 1013.2
20260507110822 19 199 1.6 1.6 0.00 3.71 3.71 99 1012.8
20260507110319 19 156 1.6 6.4 0.00 3.71 3.71 99 1012.5
20260507105816 19 190 3.2 4.8 0.00 3.71 3.71 99 1013.2
20260507105312 19 218 0.0 1.6 0.00 3.71 3.71 99 1013.5
20260507104809 19 204 1.6 1.6 0.00 3.71 3.71 99 1013.5
20260507104305 19 218 0.0 1.6 0.00 3.71 3.71 99 1013.2
20260507103802 19 189 1.6 6.4 0.00 3.71 3.71 99 1013.5
20260507103258 19 249 1.6 1.6 0.00 3.71 3.71 99 1012.8
20260507102754 19 122 3.2 11.3 0.00 3.71 3.71 99 1013.2
20260507102251 19 235 0.0 4.8 0.00 3.71 3.71 99 1013.2
20260507101747 19 211 1.6 4.8 0.00 3.71 3.71 99 1013.2
20260507101242 19 152 4.8 4.8 0.00 3.71 3.71 99 1012.8
20260507100740 19 176 3.2 4.8 0.00 3.71 3.71 99 1012.5
20260507100238 19 101 3.2 6.4 0.00 3.71 3.71 99 1012.2
20260507095736 19 200 3.2 4.8 0.00 3.71 3.71 99 1012.5
20260507095232 19 145 3.2 6.4 0.00 3.71 3.71 99 1012.8
20260507094729 19 109 4.8 9.7 0.00 3.71 3.71 99 1013.2
20260507094226 19 168 4.8 11.3 0.00 3.71 3.71 99 1013.2
20260507093723 19 158 4.8 9.7 0.18 3.71 3.71 99 1013.9
20260507093221 19 124 8.0 11.3 0.00 3.71 3.71 99 1013.9
20260507092719 19 125 4.8 6.4 0.00 3.68 3.68 99 1013.9
20260507092215 19 199 0.0 4.8 0.00 3.68 3.68 99 1014.2
20260507091711 19 137 3.2 9.7 0.00 3.68 3.68 99 1013.9
20260507091208 19 97 3.2 11.3 0.00 3.68 3.68 99 1014.2
20260507090703 19 228 3.2 4.8 0.13 3.68 3.68 99 1014.2
20260507090200 19 120 9.7 14.5 0.13 3.68 3.68 99 1014.2
20260507085657 19 184 6.4 16.1 0.18 3.66 3.66 99 1014.2
20260507085154 19 114 6.4 14.5 0.18 3.66 3.66 99 1014.2
20260507084651 19 126 6.4 14.5 0.13 3.63 3.63 99 1013.9
20260507084147 19 146 8.0 14.5 0.13 3.63 3.63 99 1014.2
20260507083644 19 177 4.8 12.9 0.00 3.61 3.61 99 1014.2
20260507083141 18 100 9.7 12.9 0.00 3.61 3.61 99 1013.9
20260507082637 18 153 4.8 12.9 0.00 3.61 3.61 99 1013.9
20260507082134 18 128 6.4 9.7 0.00 3.61 3.61 99 1013.9
20260507081630 19 171 4.8 4.8 0.00 3.61 3.61 99 1013.9
20260507081126 19 144 3.2 4.8 0.00 3.61 3.61 99 1013.9
20260507080623 19 146 4.8 11.3 0.30 3.61 3.61 99 1013.9
20260507080120 19 199 6.4 11.3 0.48 3.61 3.61 99 1013.5
20260507075619 19 125 6.4 12.9 0.30 3.58 3.58 99 1014.2
20260507075116 19 126 6.4 6.4 0.43 3.53 3.53 99 1014.5
20260507074613 18 114 4.8 4.8 0.30 3.48 3.48 99 1014.2
20260507074112 19 140 3.2 4.8 0.79 3.45 3.45 99 1014.5
20260507073607 19 100 3.2 4.8 3.48 3.43 3.43 99 1014.9
20260507073103 19 134 3.2 4.8 3.35 3.30 3.30 99 1016.6
20260507072602 19 245 3.2 9.7 0.79 2.82 2.82 99 1017.6
20260507072058 19 297 3.2 9.7 2.59 2.72 2.72 99 1015.6
20260507071556 19 290 3.2 3.2 3.96 2.62 2.62 99 1015.6
20260507071052 19 87 1.6 3.2 3.35 2.31 2.31 99 1015.2
20260507070549 19 118 8.0 9.7 2.59 1.91 1.91 99 1014.9
20260507070046 19 268 3.2 11.3 4.75 1.70 1.70 99 1015.9
20260507065542 19 318 12.9 17.7 2.87 1.37 1.37 99 1015.2
20260507065040 19 303 17.7 20.9 0.43 0.89 0.89 99 1015.6
20260507064538 20 340 8.0 14.5 0.30 0.84 0.84 99 1014.2
20260507064036 20 333 3.2 22.5 0.18 0.79 0.79 99 1014.2
20260507063533 20 317 4.8 9.7 0.00 0.76 0.76 99 1013.9
20260507063030 20 255 0.0 1.6 0.13 0.76 0.76 99 1013.9
20260507062527 20 298 3.2 4.8 0.13 0.76 0.76 99 1013.9
20260507062024 20 286 0.0 0.0 0.18 0.74 0.74 99 1013.9
20260507061522 20 174 0.0 1.6 0.18 0.74 0.74 99 1013.2
20260507061020 20 105 1.6 3.2 0.13 0.71 0.71 99 1014.2
20260507060517 20 163 1.6 4.8 0.13 0.71 0.71 99 1014.2
20260507060014 20 110 3.2 4.8 0.18 0.69 0.69 99 1014.5
20260507055514 20 125 1.6 3.2 0.18 0.69 0.69 99 1014.5
20260507055011 20 209 0.0 1.6 0.13 0.66 0.66 99 1014.5
20260507054507 20 219 0.0 1.6 0.13 0.66 0.66 99 1014.5
20260507054004 20 104 0.0 3.2 0.18 0.64 0.64 99 1014.9
20260507053502 20 344 1.6 3.2 0.36 0.64 0.64 99 1014.9
20260507053000 20 352 1.6 1.6 0.18 0.61 0.61 99 1015.2
20260507052458 20 296 0.0 1.6 0.13 0.58 0.58 99 1015.2
20260507051954 20 185 1.6 3.2 0.18 0.56 0.56 99 1015.6
20260507051452 20 51 0.0 11.3 0.30 0.56 0.56 99 1015.9
20260507050948 20 335 8.0 12.9 0.30 0.53 0.53 99 1016.6
20260507050445 20 331 9.7 11.3 0.18 0.51 0.51 99 1016.6
20260507045942 20 323 6.4 9.7 0.00 0.48 0.48 99 1016.2
20260507045438 20 271 4.8 6.4 0.13 0.48 0.48 99 1015.9
20260507044936 20 285 3.2 3.2 0.13 0.48 0.48 99 1015.9
20260507044432 20 238 0.0 4.8 0.00 0.46 0.46 99 1015.2
20260507043928 20 233 1.6 1.6 0.18 0.46 0.46 99 1015.2
20260507043425 20 208 0.0 1.6 0.79 0.46 0.46 99 1015.2
20260507042921 20 267 0.0 1.6 1.68 0.43 0.43 99 1015.6
20260507042418 20 230 4.8 4.8 1.55 0.30 0.30 99 1015.6
20260507041914 20 228 4.8 9.7 0.48 0.15 0.15 99 1016.6
20260507041411 20 250 1.6 4.8 0.13 0.05 0.05 99 1016.6
20260507040908 20 243 1.6 1.6 0.43 0.05 0.05 99 1016.2
20260507040404 20 224 0.0 0.0 0.30 0.03 0.03 99 1015.9
20260507035900 20 224 0.0 1.6 0.36 0.53 0.53 99 1016.6
20260507035356 20 255 0.0 1.6 0.61 0.51 0.51 99 1016.6
20260507034853 20 239 1.6 3.2 0.71 0.48 0.48 99 1016.6
20260507034350 20 275 1.6 3.2 0.48 0.43 0.43 98 1016.6
20260507033848 20 258 1.6 3.2 0.48 0.36 0.36 98 1016.2
20260507033346 20 270 3.2 3.2 0.43 0.33 0.33 98 1016.9
20260507032842 21 307 3.2 4.8 0.43 0.28 0.28 97 1016.6
20260507032339 21 236 3.2 3.2 0.48 0.25 0.25 97 1016.2
20260507031835 21 247 1.6 3.2 0.36 0.20 0.20 96 1016.2
20260507031332 21 240 3.2 4.8 0.30 0.18 0.18 95 1016.2
20260507030829 21 233 1.6 3.2 0.30 0.15 0.15 94 1016.2
20260507030326 21 256 3.2 3.2 0.18 0.13 0.13 93 1016.2
20260507025823 21 288 3.2 3.2 0.13 0.10 0.10 92 1015.6
20260507025320 21 251 1.6 1.6 0.13 0.10 0.10 91 1015.6
20260507024818 22 245 1.6 3.2 0.18 0.08 0.08 90 1015.2
20260507024315 22 242 1.6 1.6 0.18 0.08 0.08 89 1014.9
20260507023811 22 234 1.6 3.2 0.13 0.05 0.05 89 1014.9
20260507023307 21 301 1.6 3.2 0.13 0.05 0.05 90 1014.5
20260507022805 21 263 0.0 1.6 0.00 0.03 0.03 90 1014.5
20260507022301 21 195 0.0 1.6 0.00 0.03 0.03 91 1014.5
20260507021757 22 203 0.0 1.6 0.00 0.03 0.03 91 1014.5
20260507021253 22 193 0.0 1.6 0.00 0.03 0.03 90 1014.5
20260507020751 22 195 1.6 1.6 0.00 0.03 0.03 85 1014.5
20260507020248 23 234 0.0 0.0 0.00 0.03 0.03 83 1014.5
20260507015745 23 271 1.6 1.6 0.00 0.03 0.03 82 1014.5
20260507015242 22 275 3.2 4.8 0.00 0.03 0.03 83 1014.9
20260507014739 22 250 3.2 4.8 0.00 0.03 0.03 85 1014.9
20260507014236 22 253 0.0 1.6 0.00 0.03 0.03 87 1014.5
20260507013732 22 196 0.0 0.0 0.18 0.03 0.03 89 1014.2
20260507013230 22 223 0.0 0.0 0.18 0.03 0.03 89 1014.5
20260507012727 22 238 0.0 0.0 0.00 0.00 0.00 87 1014.5
20260507012222 22 235 0.0 0.0 0.00 0.00 0.00 86 1014.2
20260507011720 23 198 0.0 0.0 0.00 0.00 0.00 84 1014.2
20260507011216 23 207 0.0 0.0 0.00 0.00 0.00 77 1014.5
20260507010716 24 233 0.0 1.6 0.00 0.00 0.00 75 1014.9
20260507010212 25 254 0.0 1.6 0.00 0.00 0.00 73 1014.9
20260507005710 25 250 1.6 1.6 0.00 0.00 0.00 72 1014.9
20260507005206 25 251 1.6 1.6 0.00 0.00 0.00 70 1014.9
20260507004703 25 218 0.0 1.6 0.00 0.00 0.00 67 1014.5
20260507004200 25 207 0.0 1.6 0.00 0.00 0.00 66 1014.9
20260507003657 25 181 0.0 1.6 0.00 0.00 0.00 65 1014.5
20260507003157 25 243 0.0 0.0 0.00 0.00 0.00 66 1014.9
20260507002653 25 239 0.0 1.6 0.00 0.00 0.00 65 1014.5
20260507002149 26 242 0.0 3.2 0.00 0.00 0.00 65 1014.5
20260507001646 26 147 3.2 4.8 0.00 0.00 0.00 64 1014.5
20260507001144 26 191 0.0 1.6 0.00 0.00 0.00 65 1014.5
20260507000640 25 228 0.0 1.6 0.00 0.00 0.00 65 1014.5
20260507000135 26 183 0.0 0.0 0.00 0.00 0.00 66 1014.5
20260506235633 26 198 0.0 3.2 0.00 0.00 0.00 65 1014.5
20260506235133 26 196 0.0 1.6 0.00 0.00 0.00 64 1014.5
20260506234631 26 228 0.0 1.6 0.00 0.00 0.00 64 1014.5
20260506234128 26 154 0.0 3.2 0.00 0.00 0.00 64 1014.5
20260506233625 26 241 3.2 3.2 0.00 0.00 0.00 63 1014.2
20260506233122 26 190 0.0 1.6 0.00 0.00 0.00 62 1014.5
20260506232618 26 190 0.0 6.4 0.00 0.00 0.00 62 1014.2
20260506232113 27 107 3.2 4.8 0.00 0.00 0.00 61 1014.2
20260506231611 27 139 3.2 6.4 0.00 0.00 0.00 60 1014.5
20260506231109 27 221 0.0 1.6 0.00 0.00 0.00 59 1014.9
20260506230605 27 225 0.0 3.2 0.00 0.00 0.00 59 1015.2
20260506225559 27 228 0.0 3.2 0.00 0.00 0.00 58 1014.9
20260506225055 27 290 1.6 4.8 0.00 0.00 0.00 58 1014.9
20260506224552 27 253 4.8 9.7 0.00 0.00 0.00 57 1014.5
20260506224049 27 149 1.6 6.4 0.00 0.00 0.00 57 1014.5
20260506223545 28 162 3.2 4.8 0.00 0.00 0.00 57 1014.9
20260506223041 28 192 8.0 9.7 0.00 0.00 0.00 57 1014.9
20260506222538 28 262 1.6 9.7 0.00 0.00 0.00 58 1014.5
20260506222035 28 165 0.0 9.7 0.00 0.00 0.00 58 1014.2
20260506221532 28 190 1.6 9.7 0.00 0.00 0.00 56 1014.5
20260506221030 28 191 3.2 9.7 0.00 0.00 0.00 56 1014.5
20260506220526 28 230 0.0 9.7 0.00 0.00 0.00 57 1014.5
20260506220021 28 235 1.6 4.8 0.00 0.00 0.00 56 1014.5
20260506215519 28 133 3.2 9.7 0.00 0.00 0.00 56 1014.5
20260506215014 28 245 14.5 17.7 0.00 0.00 0.00 54 1014.5
20260506214512 28 209 0.0 3.2 0.00 0.00 0.00 55 1014.5
20260506214009 28 251 0.0 12.9 0.00 0.00 0.00 55 1014.5
20260506213507 29 182 4.8 6.4 0.00 0.00 0.00 54 1014.5
20260506213004 29 219 4.8 4.8 0.00 0.00 0.00 54 1014.5
20260506212500 30 268 6.4 12.9 0.00 0.00 0.00 52 1014.9
20260506211954 30 223 3.2 9.7 0.00 0.00 0.00 52 1014.5
20260506211450 30 248 6.4 11.3 0.00 0.00 0.00 50 1014.9
20260506210948 30 280 3.2 11.3 0.00 0.00 0.00 51 1015.2
20260506210444 30 235 3.2 11.3 0.00 0.00 0.00 51 1015.2
20260506205942 30 216 6.4 11.3 0.00 0.00 0.00 50 1015.2
20260506205438 30 272 3.2 9.7 0.00 0.00 0.00 51 1015.2
20260506204934 30 270 3.2 4.8 0.00 0.00 0.00 52 1015.6
20260506204432 30 238 12.9 14.5 0.00 0.00 0.00 50 1015.6
20260506203929 31 248 6.4 11.3 0.00 0.00 0.00 49 1015.6
20260506203426 30 160 3.2 16.1 0.00 0.00 0.00 51 1015.6
20260506202923 30 196 3.2 12.9 0.00 0.00 0.00 50 1015.6
20260506202420 30 230 0.0 4.8 0.00 0.00 0.00 50 1015.9
20260506201916 30 239 4.8 11.3 0.00 0.00 0.00 49 1015.9
20260506201414 29 241 11.3 14.5 0.00 0.00 0.00 48 1016.2
20260506200910 29 267 4.8 11.3 0.00 0.00 0.00 48 1016.2
20260506200406 30 251 14.5 17.7 0.00 0.00 0.00 46 1016.2
20260506195903 30 251 9.7 12.9 0.00 0.00 0.00 47 1016.2
20260506195401 29 300 3.2 16.1 0.00 0.00 0.00 48 1016.2
20260506194857 29 249 9.7 14.5 0.00 0.00 0.00 46 1016.6
20260506194354 30 231 11.3 16.1 0.00 0.00 0.00 45 1016.6
20260506193851 30 291 3.2 14.5 0.00 0.00 0.00 47 1016.6
20260506193348 30 248 3.2 14.5 0.00 0.00 0.00 46 1016.6
20260506192844 30 237 3.2 6.4 0.00 0.00 0.00 45 1016.6
20260506192341 30 286 9.7 16.1 0.00 0.00 0.00 46 1016.6
20260506191838 30 236 6.4 12.9 0.00 0.00 0.00 45 1016.6
20260506191335 30 125 4.8 6.4 0.00 0.00 0.00 49 1016.2
20260506190832 30 260 6.4 12.9 0.00 0.00 0.00 46 1016.6
20260506190328 30 217 9.7 14.5 0.00 0.00 0.00 45 1016.6
20260506185825 30 250 3.2 4.8 0.00 0.00 0.00 44 1016.6
20260506185322 30 164 8.0 16.1 0.00 0.00 0.00 45 1016.6
20260506184819 30 255 3.2 11.3 0.00 0.00 0.00 49 1016.6
20260506184316 30 23 8.0 12.9 0.00 0.00 0.00 47 1016.6
20260506183813 30 257 4.8 9.7 0.00 0.00 0.00 46 1016.9
20260506183308 30 183 1.6 11.3 0.00 0.00 0.00 47 1016.9
20260506182806 30 234 9.7 16.1 0.00 0.00 0.00 45 1017.2
20260506182306 30 236 6.4 9.7 0.00 0.00 0.00 46 1016.9
20260506181800 29 247 6.4 11.3 0.00 0.00 0.00 49 1016.9
20260506181258 29 241 6.4 16.1 0.00 0.00 0.00 50 1017.2
20260506180755 29 253 4.8 11.3 0.00 0.00 0.00 50 1017.2
20260506180251 28 2 16.1 17.7 0.00 0.00 0.00 50 1016.9
20260506175747 30 264 8.0 12.9 0.00 0.00 0.00 48 1017.2
20260506175244 29 320 6.4 11.3 0.00 0.00 0.00 50 1017.2
20260506174742 28 243 9.7 16.1 0.00 0.00 0.00 50 1017.2
20260506174239 29 240 8.0 11.3 0.00 0.00 0.00 48 1017.2
20260506173737 28 165 1.6 9.7 0.00 0.00 0.00 51 1017.6
20260506173233 28 132 14.5 20.9 0.00 0.00 0.00 50 1017.2
20260506172730 28 212 4.8 6.4 0.00 0.00 0.00 52 1017.2
20260506172226 28 243 6.4 11.3 0.00 0.00 0.00 52 1017.9
20260506171724 28 230 4.8 6.4 0.00 0.00 0.00 52 1017.6
20260506171221 27 266 6.4 11.3 0.00 0.00 0.00 52 1017.6
20260506170719 27 261 6.4 11.3 0.00 0.00 0.00 51 1017.9
20260506170215 27 271 11.3 12.9 0.00 0.00 0.00 52 1017.9
20260506165714 27 288 3.2 16.1 0.00 0.00 0.00 53 1017.9
20260506165210 28 297 9.7 17.7 0.00 0.00 0.00 50 1017.9
20260506164708 28 114 3.2 9.7 0.00 0.00 0.00 54 1018.3
20260506164205 27 295 9.7 12.9 0.00 0.00 0.00 55 1017.9
20260506163701 27 226 8.0 12.9 0.00 0.00 0.00 53 1017.9
20260506163156 27 255 4.8 11.3 0.00 0.00 0.00 56 1018.3
20260506162652 27 238 1.6 6.4 0.00 0.00 0.00 56 1018.3
20260506162150 26 262 6.4 12.9 0.00 0.00 0.00 55 1018.3
20260506161647 25 236 3.2 12.9 0.00 0.00 0.00 60 1018.3
20260506161144 26 251 3.2 12.9 0.00 0.00 0.00 62 1018.6
20260506160642 26 334 3.2 11.3 0.00 0.00 0.00 62 1018.3
20260506160138 26 254 12.9 16.1 0.00 0.00 0.00 60 1018.6